Regional Weather Roundup
Issued by NWS Wakefield, VA

Home | Current Version | Previous Version | Text Only | Print | Product List | Glossary Off
Versions: 1 2 3 4 5 6 7 8 9 10 11 12 13 14 15 16 17 18 19 20 21 22 23 24 25 26 27 28 29 30 31 32 33 34 35 36 37 38 39 40 41 42 43 44 45 46 47 48 49 50

000
ASUS41 KAKQ 040914
RWRAKQ

REGIONAL WEATHER ROUNDUP
NATIONAL WEATHER SERVICE WAKEFIELD VA
500 AM EDT MON MAY 04 2015

Note: "fair" indicates few or no clouds below 12,000 feet with no
significant weather and/or obstructions to visibility. * = Denotes
station may not report precipitation (e.g., rain,snow,etc.),
thunder or fog.

VAZ042-051-052>054-056-041000-
NORTHERN VIRGINIA

CITY           SKY/WX    TMP DP  RH WIND       PRES   REMARKS
WASH NATIONAL  MOCLDY    60  50  69 SW5       30.20R
DULLES         MOCLDY    53  45  74 S3        30.19R
FORT BELVOIR   PTCLDY    48  47  95 CALM      30.20R
QUANTICO       MOCLDY    54  49  83 W3        30.21R
FREDERICKSBRG* CLEAR     51  51  99 CALM      30.20R
STAFFORD*      MOCLDY    46  32  58 CALM      30.24R
WARRENTON      CLOUDY    47  47 100 CALM      30.19S
CULPEPER*      NOT AVBL
MANASSAS*      MOCLDY    50  50 100 CALM      30.20R
LEESBURG*      PTCLDY    50  48  93 CALM      30.20R
WINCHESTER     CLEAR     52  41  66 SW3       30.18S
FRONT ROYAL*   FAIR      54  43  66 S7        30.18S
LURAY*         FAIR      46  46 100 CALM      30.21S
$$

VAZ048-049-060>072-079>083-041000-
CENTRAL AND SOUTH CENTRAL VIRGINIA

CITY           SKY/WX    TMP DP  RH WIND       PRES   REMARKS
RICHMOND       CLEAR     56  46  69 S3        30.22R
CHESTERFIELD*  FAIR      59  39  47 SW6       30.24R
PETERSBURG*    CLEAR     58  46  65 SW5       30.24R
HANOVER        CLEAR     51  48  89 CALM      30.23R
TAPPAHANNOCK*  CLEAR     55  43  65 S3        30.22R
QUINTON*       FAIR      49  47  94 CALM      30.22R
CHARLOTTSVILLE CLEAR     49  45  86 CALM      30.20R
GORDONSVILLE*  FAIR      49  47  92 CALM      30.20S
ORANGE*        CLOUDY    50  46  87 CALM      30.22R
LOUISA*        CLOUDY    57  46  67 CALM      30.20R
BUMPASS*       CLOUDY    50  46  86 MISG      30.21R
FARMVILLE*     CLEAR     48  48 100 CALM      30.22R
CREWE*         FAIR      55  48  79 CALM      30.22R
FORT PICKETT*  FAIR      54  48  82 SW5       30.23R
CHASE CITY*    FAIR      54  53  95 CALM      30.23R
CLARKSVILLE*   FAIR      54  50  87 SW3       30.22S
SOUTH HILL*    CLEAR     48  46  92 CALM      30.29S
LAWRENCEVILLE* FAIR      51  47  85 CALM      30.23S
EMPORIA*       CLEAR     46  45  93 CALM      30.25S
$$

VAZ088>098-041000-
SOUTHEAST VIRGINIA

CITY           SKY/WX    TMP DP  RH WIND       PRES   REMARKS
NORFOLK        CLEAR     62  43  49 SW10      30.23S
VIRGINIA BEACH CLEAR     58  45  62 W8        30.23S
NORFOLK NAVAL  CLEAR     64  46  52 SW7       30.25R
WEST POINT*    CLEAR     61  46  59 SW7       30.24R
SALUDA*        FAIR      59  47  63 SW7       30.21S
NEWPORT NEWS   CLEAR     61  47  59 SW8       30.23S
LANGLEY AFB    CLEAR     60  47  61 W9        30.22R
FORT EUSTIS    CLEAR     58  47  66 NE1       30.22R
WILLIAMSBURG*  CLEAR     64  48  55 SW8       30.24R
HR EXEC AP*    FAIR      48  45  87 SW3       30.25S
FRANKLIN*      CLEAR     54  47  78 S3        30.25R
WAKEFIELD      CLEAR     51  47  86 CALM      30.24R
$$

VAZ020-022-025-037-045-041000-
WEST CENTRAL AND SOUTHWEST VIRGINIA

CITY           SKY/WX    TMP DP  RH WIND       PRES   REMARKS
STAUNTON*      CLEAR     45  42  89 CALM      30.24R
WAYNESBORO*    FAIR      47  41  80 CALM      30.22S
HOT SPRINGS VA CLEAR     57  43  59 SW7       30.26S
LYNCHBURG      CLEAR     48  46  93 CALM      30.23S
DANVILLE       CLEAR     51  47  86 CALM      30.23R
SOUTH BOSTON*  FAIR      47  45  95 CALM      30.23R
MARTINSVILLE   MOCLDY    46  46 100 CALM      30.26R FOG
ROANOKE        CLEAR     49  46  90 W3        30.24R
BLACKSBURG     CLEAR     47  44  90 CALM      30.27S
DUBLIN*        MOCLDY    49  47  93 CALM      30.26R
MARION*        CLEAR     47  44  90 CALM      30.28R
HILLSVILLE*    CLEAR     56  46  69 S5        30.26R
RICHLANDS*     FAIR      60  36  40 CALM      30.24S
WISE*          CLEAR     54  37  54 SW5       30.25R
ABINGDON*      CLOUDY    55  47  75 E3        30.24R
$$

MDZ021>025-VAZ099-100-041000-
SOUTHERN MARYLAND AND THE DELMARVA PENINSULA

CITY           SKY/WX    TMP DP  RH WIND       PRES   REMARKS
PATUXENT RIVER CLEAR     59  46  62 SW9       30.19R
BAY BRIDGE APT   N/A    N/A N/A N/A CALM      30.19R
LEONARDTOWN    CLEAR     55  45  67 CALM      30.22R
DOVER          CLEAR     57  51  79 SW5       30.15R
GEORGETOWN     CLEAR     51  47  86 CALM      30.20R
EASTON         CLEAR     56  50  81 CALM      30.23R
CAMBRIDGE      CLEAR     54  50  87 CALM      30.19R
SALISBURY      CLEAR     49  46  90 CALM      30.20R
OCEAN CITY     CLEAR     48  46  93 SW3       30.20R
WALLOPS ISLAND CLEAR     62  48  60 W9        30.21R
ACCOMACK*      CLEAR     61  50  67 W7        30.22R
$$

NCZ012>017-030>032-041000-
NORTH CENTRAL AND EASTERN NORTH CAROLINA

CITY           SKY/WX    TMP DP  RH WIND       PRES   REMARKS
ROANOKE RAPIDS FAIR      50  46  87 CALM      30.24S
RALEIGH        PTCLDY    56  52  86 CALM      30.24S
ELIZABETH CITY CLEAR     54  48  80 SW7       30.25S
AHOSKIE*       PTCLDY    52  47  83 CALM      30.25S
EDENTON*       MOCLDY    54  51  89 CALM      30.25S
CURRITUCK*     CLEAR     57  46  66 SW5       30.25S
KILL DEVIL HLS CLEAR     60  53  76 W5        30.24S
MANTEO         CLEAR     58  52  82 W3        30.26R
CAPE HATTERAS  CLEAR     58  57  97 W5        30.25S
TARBORO*       FAIR      50  48  95 CALM      30.26S
GOLDSBORO      CLEAR     51  49  91 CALM      30.23S
WASHINGTON       N/A     55  50  85 CALM      30.26S
GREENVILLE     PTCLDY    54  50  87 CALM      30.26S
NEW BERN       CLEAR     51  48  89 CALM      30.26S
WILMINGTON     CLEAR     52  51  97 CALM      30.24S
$$

VAZ048-041000-
ELSEWHERE

CITY           SKY/WX    TMP DP  RH WIND       PRES   REMARKS
HARRISBURG PA  PTCLDY    55  48  77 CALM      30.17R
BALTIMORE      PTCLDY    52  45  77 CALM      30.18R
ANNAPOLIS      MOCLDY    55  50  83 CALM      30.18R
ANDREWS AFB    CLEAR     51  45  80 SW6       30.18R
PHILADELPHIA   CLEAR     57  49  74 SW3       30.19R
HENDERSON NC   CLEAR     53  49  86 S5        30.24S
GREENSBORO     PTCLDY    58  51  78 S5        30.23R
ROCKY MOUNT    PTCLDY    52  49  89 CALM      30.25S
$$

VAZ100-041000-
MARINE

STATION/POSITION TIME  TEMP    WIND        PRES    WAVE   SWELL
                       AIR SEA DIR/SP/G            HT/PER HT/PER
                 (UTC) (F)     (DEG/KT/KT) (MB)    (FT/S) (FT/S)
BRANDYWINE LGT   0800   62 54  220/  8/  9 1022.2R
CAPE MAY NJ      0800   58 59  160/  4/  5 1021.9R
LEWES DE         0800   62 54  220/  6/  9 1022.0R
15NM E FENWICK I 0850   54 51              1022.4R   4/12
OCEAN-CITY-INLET 0800   57 56  180/  3/  4 1022.1R
WACHAPREAGUE VA  0800   61 65  250/  4/  7 1022.9R
THOMAS POINT MD  0900   63 58  200/  6/  6 1022.8R
GOOSES REEF MD   0900   61 59                N/A     1
COVE POINT MD    0800   65     270/ 13/ 14 1022.6R
SOLOMONS ISLAND  0800      60                N/A
BISHOPS HEAD MD  0800   63 63  230/  7/  8 1022.0R
PINEY POINT MD   0800          240/  2/  2   N/A
CAMBRIDGE MD     0800   58 63   CALM  /  1 1022.0R
LEWISETTA VA     0800   63 63              1022.3R
RAPPAHANNOCK LGT 0800          220/ 10/ 11 1023.4R
YORK RVR RNG VA  0800   64     260/ 14/ 16 1022.5R
YORKTOWN VA      0800   63 61  230/ 11/ 14 1022.8R
JAMESTOWN VA     0900   60 64  280/  4/  6 1022.7R
DOMINION TERM VA 0800   62     230/ 11/ 14 1023.5R
KIPTOPEKE VA     0800      63  240/  8/ 11   N/A
CHES BAY BRIDGE  0800   64 60  230/ 13/ 14 1023.0R
CAPE HENRY VA    0800   64     230/  9/ 17 1022.3R
CHESAPEAKE LGHT  0800   62     240/ 16/ 17 1023.9R
WILLOUBY STN VA  0800   62     240/ 10/ 12 1024.0S
S CRANEY ISL VA  0800          230/  6/ 10 1023.5R
CAPE HENRY BUOY  0828      55                N/A     3/ 9   2/11
1ST LANDING BUOY 0900      59              1048.1    1/ 3
CAPE CHARLES BUO 0826      55                N/A     3/11   3/11
OFFSHORE WE BUOY 0811      52                N/A     3/11   3/11
64NM E OF VA BCH 0850   60 60  240/ 10/ 12 1023.6R   5/11   5/11
DUCK PIER NC     0800   62 55  230/  6/  8 1023.1R
44056 DUCK FRF   0811      56                N/A     4/10   2/13
OREGON INLET NC  0800   64 62  250/  7/ 11 1024.2R
HATTERAS NC      0800   65 62  270/  5/  7 1023.9R
DIAMOND SHLS NC  0850   63     320/  6/  8 1024.4S   5/10   5/10
CAPE LOOKOUT NC  0900   65     320/  3/  3 1024.1S
$$


USA.gov is the U.S. government's official web portal to all federal, state and local government web resources and services.